DW6794 Weather Reports


Display with metric or nautical units.
time (UTC)temp
F
wind
direction
speed
MPH
gust
MPH
rain 1hr
in
rain 24hr
in
rain mn
in
humidity
%
barometer
mb
20150527094352 60 209 0.0 0.0 0.00 0.02 0.00 83 1017.7
20150527093352 60 209 0.0 0.0 0.00 0.02 0.00 83 1017.6
20150527092352 60 209 0.0 0.0 0.00 0.03 0.00 84 1017.5
20150527091352 60 210 0.0 0.0 0.00 0.03 0.00 82 1017.5
20150527090352 60 210 0.0 0.0 0.00 0.05 0.00 82 1017.4
20150527085352 61 210 0.0 0.0 0.00 0.06 0.00 82 1017.1
20150527084352 62 210 0.0 0.0 0.00 0.06 0.00 82 1017.0
20150527083352 62 210 0.0 0.0 0.00 0.06 0.00 81 1017.0
20150527082352 63 210 0.0 0.0 0.00 0.06 0.00 81 1017.0
20150527081352 63 210 0.0 0.0 0.00 0.06 0.00 81 1017.0
20150527080352 64 210 0.0 0.0 0.00 0.06 0.00 81 1016.9
20150527075352 64 210 0.0 0.0 0.00 0.06 0.00 81 1016.7
20150527074352 65 210 0.0 0.0 0.00 0.06 0.00 81 1016.6
20150527073353 65 210 0.0 0.0 0.00 0.06 0.00 81 1016.6
20150527072353 66 210 0.0 0.0 0.00 0.06 0.00 81 1016.8
20150527071352 66 210 0.0 0.0 0.00 0.06 0.00 80 1016.8
20150527070352 66 210 0.0 0.0 0.00 0.06 0.00 80 1016.8
20150527065353 66 210 0.0 0.0 0.00 0.06 0.00 80 1016.7
20150527064353 66 210 0.0 0.0 0.00 0.06 0.00 80 1016.8
20150527063353 67 210 0.0 0.0 0.00 0.06 0.00 79 1016.8
20150527061352 67 210 0.0 0.0 0.00 0.06 0.00 79 1016.8
20150527060352 67 210 0.0 0.0 0.00 0.06 0.00 79 1016.7
20150527055352 68 210 0.0 0.0 0.00 0.06 0.00 78 1016.7
20150527054352 68 210 0.0 0.0 0.00 0.06 0.00 78 1016.6
20150527053353 68 210 0.0 0.0 0.00 0.06 0.00 78 1016.7
20150527052353 68 210 0.0 0.0 0.00 0.06 0.00 77 1016.7
20150527051353 69 210 0.0 0.0 0.00 0.06 0.00 77 1016.7
20150527050353 69 210 0.0 0.0 0.00 0.06 0.00 77 1016.8
20150527045352 69 210 0.0 0.0 0.00 0.06 0.00 77 1016.8
20150527044353 70 210 0.0 0.0 0.00 0.06 0.00 77 1016.8
20150527043353 70 210 0.0 0.0 0.00 0.06 0.00 76 1016.7
20150527042353 70 210 0.0 0.0 0.00 0.06 0.00 76 1016.7
20150527041352 70 210 0.0 0.0 0.00 0.06 0.00 75 1016.8
20150527040353 71 210 0.0 0.0 0.01 0.06 0.00 74 1017.0
20150527035352 71 210 0.0 0.0 0.01 0.06 0.06 73 1016.9
20150527034353 71 210 0.0 0.0 0.01 0.06 0.06 73 1017.1
20150527033353 72 210 0.0 0.0 0.01 0.06 0.06 72 1017.1
20150527032352 72 210 0.0 0.0 0.01 0.06 0.06 70 1017.3
20150527031353 73 210 0.0 0.0 0.01 0.06 0.06 69 1017.1
20150527030353 74 210 0.0 0.0 0.00 0.05 0.05 68 1017.1
20150527025353 75 210 0.0 0.0 0.00 0.05 0.05 66 1017.0
20150527024353 75 210 0.0 0.0 0.00 0.05 0.05 64 1016.9
20150527023353 76 210 0.0 0.0 0.00 0.05 0.05 63 1016.8
20150527022353 77 211 0.0 0.0 0.00 0.05 0.05 62 1016.8
20150527021353 77 210 0.0 0.0 0.00 0.05 0.05 62 1016.7
20150527020353 77 210 0.0 3.0 0.00 0.05 0.05 62 1016.4
20150527015354 78 194 2.0 8.0 0.00 0.05 0.05 61 1016.2
20150527014354 78 238 3.0 9.0 0.00 0.05 0.05 61 1016.1
20150527013354 78 229 5.0 12.0 0.00 0.05 0.05 60 1016.2
20150527012353 78 272 3.0 9.0 0.00 0.05 0.05 60 1016.3
20150527011353 78 229 5.0 12.0 0.00 0.05 0.05 59 1016.1
20150527010354 78 192 3.0 9.0 0.00 0.05 0.05 58 1015.8
20150527005353 78 205 1.0 9.0 0.00 0.05 0.05 58 1015.7
20150527004354 78 275 2.0 8.0 0.00 0.05 0.05 58 1015.6
20150527003353 79 217 0.0 0.0 0.00 0.05 0.05 57 1015.6
20150527002354 79 217 0.0 10.0 0.00 0.05 0.05 56 1015.4
20150527001353 79 220 6.0 9.0 0.00 0.05 0.05 56 1015.1
20150527000353 79 173 2.0 12.0 0.00 0.05 0.05 56 1014.7
20150526235353 79 186 1.0 8.0 0.00 0.05 0.05 56 1014.6
20150526234353 80 181 2.0 10.0 0.00 0.05 0.05 56 1014.7
20150526233353 80 126 0.0 0.0 0.00 0.05 0.05 55 1014.7
20150526232353 80 47 0.0 0.0 0.00 0.05 0.05 55 1014.6
20150526231353 80 150 0.0 7.0 0.00 0.05 0.05 55 1014.6
20150526230353 81 161 0.0 1.0 0.00 0.05 0.05 54 1014.6
20150526225353 81 167 0.0 1.0 0.00 0.05 0.05 54 1014.7
20150526224354 82 141 1.0 9.0 0.00 0.05 0.05 54 1015.0
20150526223354 82 216 0.0 9.0 0.00 0.05 0.05 54 1015.0
20150526222354 82 195 0.0 7.0 0.00 0.05 0.05 54 1015.1
20150526221354 82 221 3.0 12.0 0.00 0.05 0.05 53 1015.2
20150526220354 82 204 2.0 10.0 0.00 0.05 0.05 53 1015.2
20150526215354 83 202 1.0 7.0 0.00 0.05 0.05 52 1015.1
20150526214354 83 150 5.0 13.0 0.00 0.05 0.05 52 1015.3
20150526213354 83 162 5.0 18.0 0.00 0.05 0.05 51 1015.2
20150526212354 83 175 5.0 17.0 0.00 0.05 0.05 50 1015.2
20150526211354 84 320 4.0 15.0 0.00 0.05 0.05 50 1015.1
20150526210354 84 180 3.0 12.0 0.00 0.05 0.05 50 1015.0
20150526205354 85 212 6.0 20.0 0.00 0.05 0.05 50 1015.0
20150526204354 85 131 7.0 14.0 0.00 0.05 0.05 51 1014.9
20150526203354 84 201 5.0 14.0 0.00 0.05 0.05 51 1015.0
20150526202354 84 167 1.0 10.0 0.00 0.05 0.05 53 1015.0
20150526201355 84 216 3.0 12.0 0.00 0.05 0.05 54 1015.0
20150526200354 84 213 4.0 10.0 0.00 0.05 0.05 53 1015.1
20150526195354 84 275 3.0 10.0 0.00 0.05 0.05 54 1015.4
20150526194355 83 176 1.0 14.0 0.00 0.05 0.05 55 1015.5
20150526193354 83 166 7.0 14.0 0.00 0.05 0.05 55 1016.0
20150526192354 83 109 1.0 12.0 0.00 0.05 0.05 56 1016.0
20150526191355 82 169 5.0 8.0 0.00 0.05 0.05 57 1016.1
20150526190354 82 185 0.0 3.0 0.00 0.05 0.05 58 1016.5
20150526185354 82 183 1.0 5.0 0.00 0.05 0.05 57 1016.6
20150526184355 82 210 2.0 17.0 0.00 0.05 0.05 57 1016.7
20150526183355 82 153 6.0 13.0 0.00 0.05 0.05 57 1016.9
20150526182355 82 247 1.0 7.0 0.00 0.05 0.05 59 1017.1
20150526181354 81 224 1.0 8.0 0.00 0.05 0.05 59 1017.2
20150526180355 81 187 1.0 10.0 0.00 0.05 0.05 59 1017.6
20150526175355 81 153 0.0 10.0 0.00 0.05 0.05 59 1017.7
20150526174355 81 183 3.0 10.0 0.01 0.05 0.05 59 1017.7
20150526173354 81 192 3.0 9.0 0.01 0.05 0.05 60 1017.9
20150526172355 81 244 3.0 7.0 0.01 0.05 0.05 61 1018.2
20150526171355 80 196 2.0 3.0 0.01 0.05 0.05 62 1018.2
20150526170354 80 192 1.0 5.0 0.01 0.05 0.05 62 1018.3
20150526165355 80 213 2.0 3.0 0.01 0.05 0.05 62 1018.4
20150526164355 80 165 0.0 10.0 0.00 0.04 0.04 63 1018.3
20150526163355 79 180 1.0 10.0 0.00 0.04 0.04 63 1018.6
20150526162355 79 169 3.0 7.0 0.00 0.04 0.04 64 1018.6
20150526161355 79 157 0.0 6.0 0.00 0.04 0.04 65 1018.5
20150526160355 79 157 1.0 7.0 0.00 0.04 0.04 65 1018.6
20150526155355 78 178 0.0 5.0 0.00 0.04 0.04 66 1018.5
20150526154355 78 166 2.0 6.0 0.00 0.04 0.04 66 1018.6
20150526153355 77 222 0.0 3.0 0.00 0.04 0.04 67 1018.7
20150526152355 77 217 3.0 8.0 0.00 0.04 0.04 68 1018.6
20150526151355 77 222 4.0 8.0 0.00 0.04 0.04 68 1018.5
20150526150355 77 158 0.0 8.0 0.00 0.04 0.04 68 1018.5
20150526145355 77 193 1.0 6.0 0.00 0.04 0.04 69 1018.6
20150526144355 76 167 3.0 6.0 0.00 0.04 0.04 69 1018.7
20150526143355 76 201 0.0 5.0 0.00 0.04 0.04 70 1018.7
20150526142355 76 214 4.0 10.0 0.00 0.04 0.04 70 1018.7
20150526141355 76 206 5.0 10.0 0.00 0.04 0.04 71 1018.7
20150526140355 76 173 0.0 8.0 0.00 0.04 0.04 72 1018.8
20150526135355 75 219 3.0 10.0 0.00 0.04 0.04 73 1018.9
20150526134355 74 161 2.0 13.0 0.00 0.04 0.04 74 1018.8
20150526133356 74 198 5.0 12.0 0.00 0.04 0.04 76 1018.9
20150526132355 73 157 3.0 13.0 0.00 0.04 0.04 77 1018.9
20150526131355 73 157 1.0 7.0 0.00 0.04 0.04 80 1019.2
20150526130355 72 216 0.0 0.0 0.00 0.04 0.04 80 1019.2
20150526125355 72 88 0.0 0.0 0.00 0.04 0.04 81 1018.9
20150526124355 71 88 0.0 0.0 0.00 0.04 0.04 81 1019.0
20150526123356 70 82 0.0 0.0 0.00 0.04 0.04 81 1018.9
20150526122355 70 83 0.0 0.0 0.00 0.04 0.04 81 1018.9
20150526121356 69 83 0.0 2.0 0.00 0.04 0.04 81 1018.9
20150526120356 68 28 0.0 2.0 0.00 0.04 0.04 80 1018.8
20150526115355 68 28 0.0 3.0 0.00 0.04 0.04 80 1018.8
20150526114356 67 355 0.0 0.0 0.00 0.04 0.04 80 1018.7
20150526113355 67 292 0.0 0.0 0.00 0.04 0.04 79 1018.5
20150526112356 67 302 0.0 0.0 0.00 0.04 0.04 78 1018.5
20150526111356 67 315 0.0 0.0 0.00 0.04 0.04 78 1018.4
20150526110355 67 210 0.0 0.0 0.00 0.04 0.04 77 1018.6
20150526105355 66 0 0.0 0.0 0.00 0.04 0.04 77 1018.6
20150526104356 67 0 0.0 0.0 0.00 0.04 0.04 76 1018.5
20150526103356 67 0 0.0 0.0 0.00 0.04 0.04 76 1018.4
20150526102356 67 75 0.0 0.0 0.01 0.04 0.04 76 1018.3
20150526101356 67 110 0.0 0.0 0.01 0.04 0.04 75 1018.1
20150526100356 68 110 0.0 0.0 0.03 0.04 0.04 74 1018.1
20150526095356 68 110 0.0 0.0 0.04 0.04 0.04 73 1018.0